S51BR Weather Reports


time (UTC)temp
F
wind
direction
speed
knots
gust
knots
rain 1hr
in
rain 24hr
in
rain mn
in
humidity
%
barometer
mb
20260906035518 64 179 0.0 0.0 0.00 0.00 0.00 70 1025.6
20260906035020 64 179 0.0 0.0 0.00 0.00 0.00 71 1025.5
20260906034531 63 184 0.0 0.0 0.00 0.00 0.00 72 1025.5
20260906034014 63 184 0.0 0.0 0.00 0.00 0.00 73 1025.4
20260906033514 63 184 0.0 0.0 0.00 0.00 0.00 73 1025.3
20260906033032 64 188 0.0 0.0 0.00 0.00 0.00 72 1025.2
20260906032509 64 188 0.0 0.0 0.00 0.00 0.00 71 1025.2
20260906032010 64 188 0.0 0.0 0.00 0.00 0.00 71 1025.3
20260906031518 64 188 0.0 0.0 0.00 0.00 0.00 71 1025.2
20260906031014 64 188 0.0 0.0 0.00 0.00 0.00 70 1025.1
20260906030516 64 188 0.0 0.0 0.00 0.00 0.00 70 1025.1
20260906030026 64 188 0.0 0.0 0.00 0.00 0.00 70 1025.0
20260906025513 64 188 0.0 0.0 0.00 0.00 0.00 70 1024.9
20260906025014 64 189 0.0 0.0 0.00 0.00 0.00 70 1024.9
20260906024529 64 189 0.0 0.0 0.00 0.00 0.00 70 1025.0
20260906024016 64 189 0.0 0.0 0.00 0.00 0.00 70 1024.9
20260906023516 65 189 0.0 0.0 0.00 0.00 0.00 69 1024.9
20260906023031 65 189 0.0 0.0 0.00 0.00 0.00 68 1025.0
20260906022519 65 189 0.0 0.0 0.00 0.00 0.00 68 1025.0
20260906022019 65 189 0.0 0.0 0.00 0.00 0.00 68 1025.0
20260906021518 65 315 0.0 0.0 0.00 0.00 0.00 69 1024.9
20260906021009 65 316 0.0 0.0 0.00 0.00 0.00 70 1025.0
20260906020512 64 316 0.0 0.0 0.00 0.00 0.00 71 1025.0
20260906020019 64 316 0.0 0.0 0.00 0.00 0.00 70 1025.0
20260906015516 65 316 0.0 0.0 0.00 0.00 0.00 70 1024.8
20260906015015 65 316 0.0 0.0 0.00 0.00 0.00 69 1024.8
20260906014529 65 316 0.0 0.0 0.00 0.00 0.00 68 1024.7
20260906014016 66 316 0.0 0.0 0.00 0.00 0.00 67 1024.8
20260906013514 66 316 0.0 0.0 0.00 0.00 0.00 66 1024.8
20260906013034 66 316 0.0 0.0 0.00 0.00 0.00 67 1024.8
20260906012522 66 316 0.0 2.6 0.00 0.00 0.00 67 1024.8
20260906012019 66 316 0.0 2.6 0.00 0.00 0.00 67 1024.8
20260906011534 66 187 0.0 1.7 0.00 0.00 0.00 67 1024.8
20260906011021 66 181 0.0 1.7 0.00 0.00 0.00 68 1024.8
20260906010510 65 131 0.0 0.0 0.00 0.00 0.00 69 1024.8
20260906010020 66 131 0.0 0.9 0.00 0.00 0.00 69 1024.8
20260906005512 66 131 0.0 0.9 0.00 0.00 0.00 69 1024.7
20260906005013 66 131 0.0 0.9 0.00 0.00 0.00 68 1024.5
20260906004523 66 131 0.0 0.9 0.00 0.00 0.00 68 1024.4
20260906004019 66 131 0.0 0.9 0.00 0.00 0.00 68 1024.5
20260906003519 66 103 0.0 0.9 0.00 0.00 0.00 68 1024.4
20260906003027 66 103 0.0 1.7 0.00 0.00 0.00 67 1024.4
20260906002515 67 115 0.0 1.7 0.00 0.00 0.00 67 1024.5
20260906002016 67 148 0.0 0.0 0.00 0.00 0.00 67 1024.5
20260906001533 67 191 0.0 0.0 0.00 0.00 0.00 67 1024.5
20260906001015 67 191 0.0 0.0 0.00 0.00 0.00 67 1024.4
20260906000514 67 191 0.0 0.0 0.00 0.00 0.00 67 1024.4
20260906000031 67 191 0.0 0.0 0.00 0.00 0.00 66 1024.4
20260905235516 67 191 0.0 0.0 0.00 0.00 0.00 66 1024.4
20260905235011 67 191 0.0 0.0 0.00 0.00 0.00 66 1024.4
20260905234523 67 191 0.0 0.0 0.00 0.00 0.00 65 1024.3
20260905234012 68 191 0.0 0.0 0.00 0.00 0.00 65 1024.2
20260905233514 68 191 0.0 0.0 0.00 0.00 0.00 64 1024.1
20260905233025 68 191 0.0 0.9 0.00 0.00 0.00 63 1024.1
20260905232503 68 191 0.0 0.9 0.00 0.00 0.00 63 1024.1
20260905232003 68 191 0.0 2.6 0.00 0.00 0.00 63 1024.0
20260905231517 68 191 0.0 2.6 0.00 0.00 0.00 63 1024.1
20260905231005 68 186 0.0 0.9 0.00 0.00 0.00 64 1024.1
20260905230506 68 182 0.0 0.9 0.00 0.00 0.00 64 1024.0
20260905230013 68 191 0.0 0.9 0.00 0.00 0.00 63 1024.1
20260905225510 68 194 0.0 0.0 0.00 0.00 0.00 62 1024.0
20260905225014 68 194 0.0 0.0 0.00 0.00 0.00 61 1024.0
20260905224546 68 194 0.0 0.0 0.00 0.00 0.00 61 1023.9
20260905224010 68 194 0.0 0.9 0.00 0.00 0.00 61 1023.8
20260905223513 69 194 0.0 0.9 0.00 0.00 0.00 60 1023.8
20260905223026 69 194 0.0 0.9 0.00 0.00 0.00 60 1023.8
20260905222515 69 194 0.0 1.7 0.00 0.00 0.00 60 1023.8
20260905222003 69 195 0.0 1.7 0.00 0.00 0.00 59 1023.8
20260905221507 69 144 0.0 0.9 0.00 0.00 0.00 59 1023.8
20260905221003 69 144 0.0 0.9 0.00 0.00 0.00 60 1023.9
20260905220503 69 144 0.0 0.9 0.00 0.00 0.00 60 1023.9
20260905220011 69 144 0.0 0.9 0.00 0.00 0.00 59 1023.8
20260905215509 69 144 0.0 0.0 0.00 0.00 0.00 60 1023.9
20260905215014 69 144 0.0 0.9 0.00 0.00 0.00 61 1023.8
20260905214517 69 144 0.0 0.9 0.00 0.00 0.00 61 1023.7
20260905214010 69 144 0.0 0.0 0.00 0.00 0.00 61 1023.7
20260905213510 69 144 0.0 0.9 0.00 0.00 0.00 61 1023.6
20260905213022 70 144 0.0 0.9 0.00 0.00 0.00 60 1023.6
20260905212510 70 144 0.0 0.9 0.00 0.00 0.00 59 1023.5
20260905212012 70 145 0.0 0.0 0.00 0.00 0.00 59 1023.5
20260905211540 70 144 0.0 0.9 0.00 0.00 0.00 59 1023.5
20260905211014 70 145 0.0 0.9 0.00 0.00 0.00 58 1023.5
20260905210503 71 144 0.0 0.9 0.00 0.00 0.00 57 1023.4
20260905210016 71 144 0.0 0.9 0.00 0.00 0.00 57 1023.3
20260905205503 71 144 0.0 0.9 0.00 0.00 0.00 56 1023.2
20260905205009 70 144 0.0 0.9 0.00 0.00 0.00 57 1023.2
20260905204507 70 144 0.0 0.9 0.00 0.00 0.00 58 1023.3
20260905204007 70 144 0.0 0.9 0.00 0.00 0.00 58 1023.3
20260905203509 70 144 0.0 0.9 0.00 0.00 0.00 58 1023.2
20260905203018 70 144 0.0 0.9 0.00 0.00 0.00 58 1023.2
20260905202508 71 144 0.0 0.9 0.00 0.00 0.00 58 1023.2
20260905202013 71 144 0.0 0.9 0.00 0.00 0.00 57 1023.2
20260905201527 71 144 0.0 0.9 0.00 0.00 0.00 57 1023.1
20260905201012 71 144 0.0 0.9 0.00 0.00 0.00 58 1023.1
20260905200521 71 144 0.0 0.9 0.00 0.00 0.00 57 1023.1
20260905200029 71 144 0.0 0.9 0.00 0.00 0.00 57 1023.0
20260905195507 71 144 0.0 0.9 0.00 0.00 0.00 57 1022.9
20260905195004 71 144 0.0 0.9 0.00 0.00 0.00 56 1022.8
20260905194509 71 145 0.0 0.9 0.00 0.00 0.00 56 1022.6
20260905194007 71 144 0.0 0.9 0.00 0.00 0.00 56 1022.5
20260905193509 71 145 0.0 0.9 0.00 0.00 0.00 56 1022.4
20260905193015 71 144 0.0 0.9 0.00 0.00 0.00 55 1022.5
20260905192511 71 144 0.0 0.9 0.00 0.00 0.00 55 1022.4
20260905192009 71 145 0.0 0.9 0.00 0.00 0.00 55 1022.3
20260905191520 72 145 0.0 0.9 0.00 0.00 0.00 56 1022.3
20260905191016 72 122 0.0 0.9 0.00 0.00 0.00 55 1022.3
20260905190513 72 122 0.0 0.9 0.00 0.00 0.00 55 1022.3
20260905190027 72 122 0.0 0.9 0.00 0.00 0.00 55 1022.2
20260905185516 72 122 0.0 0.9 0.00 0.00 0.00 54 1022.1
20260905185013 72 122 0.0 0.9 0.00 0.00 0.00 55 1022.1
20260905184530 72 122 0.0 0.9 0.00 0.00 0.00 55 1022.1
20260905184003 72 122 0.0 0.9 0.00 0.00 0.00 55 1022.0
20260905183508 72 122 0.0 0.9 0.00 0.00 0.00 55 1022.0
20260905183011 71 114 0.0 0.9 0.00 0.00 0.00 55 1021.9
20260905182508 72 98 0.0 0.9 0.00 0.00 0.00 55 1021.9
20260905182009 72 98 0.0 0.9 0.00 0.00 0.00 54 1021.9
20260905181518 72 98 0.0 0.9 0.00 0.00 0.00 54 1021.8
20260905181011 72 98 0.0 0.9 0.00 0.00 0.00 53 1021.8
20260905180515 73 98 0.0 0.9 0.00 0.00 0.00 53 1021.7
20260905180022 73 93 0.0 0.9 0.00 0.00 0.00 53 1021.7
20260905175513 73 92 0.0 0.9 0.00 0.00 0.00 53 1021.6
20260905175016 73 92 0.0 0.9 0.00 0.00 0.00 53 1021.6
20260905174527 73 92 0.0 0.9 0.00 0.00 0.00 52 1021.5
20260905174016 74 92 0.0 1.7 0.00 0.00 0.00 52 1021.3
20260905173514 74 92 0.0 1.7 0.00 0.00 0.00 51 1021.3
20260905173004 74 136 0.0 0.9 0.00 0.00 0.00 50 1021.1
20260905172506 75 136 0.0 0.9 0.00 0.00 0.00 49 1021.0
20260905172011 75 136 0.0 0.9 0.00 0.00 0.00 49 1021.0
20260905171510 75 136 0.0 0.9 0.00 0.00 0.00 49 1021.1
20260905171007 75 136 0.0 0.9 0.00 0.00 0.00 49 1021.1
20260905170510 75 136 0.0 0.9 0.00 0.00 0.00 49 1021.2
20260905170017 75 136 0.0 0.9 0.00 0.00 0.00 51 1021.1
20260905165512 75 136 0.0 0.9 0.00 0.00 0.00 49 1021.1
20260905165013 75 136 0.0 0.9 0.00 0.00 0.00 50 1021.0
20260905164527 75 136 0.0 0.9 0.00 0.00 0.00 50 1021.0
20260905164015 76 138 0.0 0.9 0.00 0.00 0.00 49 1020.9
20260905163514 76 140 0.0 0.9 0.00 0.00 0.00 49 1020.8
20260905163028 76 105 0.0 0.9 0.00 0.00 0.00 48 1020.8
20260905162514 76 104 0.0 2.6 0.00 0.00 0.00 49 1020.7
20260905162016 76 54 0.9 2.6 0.00 0.00 0.00 48 1020.6
20260905161507 77 41 0.0 2.6 0.00 0.00 0.00 48 1020.7
20260905161008 77 129 0.0 2.6 0.00 0.00 0.00 47 1020.6
20260905160509 77 203 0.9 2.6 0.00 0.00 0.00 46 1020.7
20260905160014 78 40 0.0 2.6 0.00 0.00 0.00 47 1020.7
20260905155512 78 101 0.0 2.6 0.00 0.00 0.00 45 1020.6
20260905155008 79 141 0.0 2.6 0.00 0.00 0.00 44 1020.6
20260905154516 81 39 1.7 3.5 0.00 0.00 0.00 42 1020.4
20260905154016 82 126 0.0 3.5 0.00 0.00 0.00 42 1020.3
20260905153514 83 92 0.9 4.3 0.00 0.00 0.00 42 1020.3
20260905153028 82 325 0.9 4.3 0.00 0.00 0.00 41 1020.2
20260905152515 83 281 0.9 3.5 0.00 0.00 0.00 39 1020.2
20260905152014 83 18 0.9 3.5 0.00 0.00 0.00 39 1020.2
20260905151535 84 67 0.9 2.6 0.00 0.00 0.00 39 1020.1
20260905151019 84 102 0.9 4.3 0.00 0.00 0.00 40 1020.1
20260905150523 83 185 1.7 5.2 0.00 0.00 0.00 39 1020.1
20260905150011 83 177 0.9 6.1 0.00 0.00 0.00 40 1020.1
20260905145508 84 125 0.9 6.1 0.00 0.00 0.00 40 1020.0
20260905145008 84 115 0.9 5.2 0.00 0.00 0.00 40 1020.0
20260905144523 85 179 1.7 5.2 0.00 0.00 0.00 37 1020.0
20260905144010 86 158 0.9 2.6 0.00 0.00 0.00 38 1020.0
20260905143511 85 278 0.9 3.5 0.00 0.00 0.00 38 1020.0
20260905143023 84 193 0.9 5.2 0.00 0.00 0.00 40 1019.9
20260905142512 84 61 0.9 5.2 0.00 0.00 0.00 40 1020.0
20260905142016 84 204 2.6 5.2 0.00 0.00 0.00 39 1019.9
20260905141526 85 57 1.7 4.3 0.00 0.00 0.00 41 1019.9
20260905141017 83 26 0.9 4.3 0.00 0.00 0.00 42 1020.0
20260905140523 82 184 0.9 4.3 0.00 0.00 0.00 43 1020.0
20260905140033 81 146 0.9 3.5 0.00 0.00 0.00 45 1019.9
20260905135515 81 176 0.9 3.5 0.00 0.00 0.00 44 1020.0
20260905135008 81 309 0.9 8.7 0.00 0.00 0.00 44 1020.0
20260905134511 81 198 1.7 8.7 0.00 0.00 0.00 43 1019.9
20260905134008 82 165 1.7 7.0 0.00 0.00 0.00 43 1019.9
20260905133513 83 160 2.6 7.0 0.00 0.00 0.00 42 1019.9
20260905133024 83 208 1.7 8.7 0.00 0.00 0.00 43 1020.0
20260905132514 84 141 0.9 8.7 0.00 0.00 0.00 42 1019.7
20260905132012 85 170 0.9 6.1 0.00 0.00 0.00 42 1019.7
20260905131527 85 191 1.7 5.2 0.00 0.00 0.00 42 1019.7
20260905131013 85 184 1.7 7.0 0.00 0.00 0.00 42 1019.6
20260905130503 85 141 1.7 8.7 0.00 0.00 0.00 43 1019.5
20260905130004 84 284 2.6 8.7 0.00 0.00 0.00 43 1019.6
20260905125503 85 306 2.6 7.0 0.00 0.00 0.00 43 1019.5
20260905125004 86 185 3.5 7.0 0.00 0.00 0.00 41 1019.6
20260905124509 87 108 0.9 6.1 0.00 0.00 0.00 41 1019.6
20260905124007 87 53 1.7 5.2 0.00 0.00 0.00 44 1019.5
20260905123508 86 76 0.0 6.1 0.00 0.00 0.00 46 1019.6
20260905123012 84 103 1.7 6.1 0.00 0.00 0.00 45 1019.5
20260905122510 84 250 2.6 9.6 0.00 0.00 0.00 45 1019.5
20260905122012 84 141 1.7 9.6 0.00 0.00 0.00 45 1019.5
20260905121519 85 237 2.6 7.8 0.00 0.00 0.00 43 1019.5
20260905121013 85 191 1.7 9.6 0.00 0.00 0.00 44 1019.5
20260905120517 85 207 1.7 10.4 0.00 0.00 0.00 45 1019.5
20260905120024 85 186 2.6 10.4 0.00 0.00 0.00 44 1019.5
20260905115519 85 196 1.7 10.4 0.00 0.00 0.00 46 1019.7
20260905115004 85 221 2.6 10.4 0.00 0.00 0.00 46 1019.5
20260905114507 85 160 0.9 6.1 0.00 0.00 0.00 46 1019.4
20260905114008 84 231 0.9 7.8 0.00 0.00 0.00 48 1019.4
20260905113507 83 181 3.5 7.8 0.00 0.00 0.00 48 1019.4
20260905113012 83 175 2.6 10.4 0.00 0.00 0.00 50 1019.4
20260905112510 82 121 3.5 10.4 0.00 0.00 0.00 50 1019.4
20260905112010 83 218 3.5 11.3 0.00 0.00 0.00 49 1019.5
20260905111514 83 77 2.6 11.3 0.00 0.00 0.00 51 1019.4
20260905111012 83 235 1.7 7.8 0.00 0.00 0.00 51 1019.5
20260905110515 83 207 4.3 7.8 0.00 0.00 0.00 50 1019.6
20260905110023 83 68 0.9 4.3 0.00 0.00 0.00 51 1019.5
20260905105517 83 150 0.0 5.2 0.00 0.00 0.00 52 1019.5
20260905105015 83 226 0.9 5.2 0.00 0.00 0.00 49 1019.5
20260905104528 83 198 0.9 5.2 0.00 0.00 0.00 47 1019.5
20260905104022 83 109 0.9 2.6 0.00 0.00 0.00 43 1019.5
20260905103505 83 108 0.9 6.1 0.00 0.00 0.00 45 1019.4
20260905103007 83 44 2.6 6.1 0.00 0.00 0.00 42 1019.4
20260905102505 83 127 0.0 1.7 0.00 0.00 0.00 45 1019.4
20260905102008 83 139 0.0 1.7 0.00 0.00 0.00 41 1019.3
20260905101515 83 90 0.0 1.7 0.00 0.00 0.00 41 1019.3
20260905101007 82 49 0.0 1.7 0.00 0.00 0.00 42 1019.3
20260905100512 83 91 0.9 1.7 0.00 0.00 0.00 41 1019.3
20260905100034 83 91 0.0 5.2 0.00 0.00 0.00 41 1019.3
20260905095517 83 55 1.7 5.2 0.00 0.00 0.00 40 1019.4
20260905095013 82 46 0.9 3.5 0.00 0.00 0.00 43 1019.3
20260905094524 82 47 0.9 3.5 0.00 0.00 0.00 42 1019.3
20260905094014 81 47 1.7 7.0 0.00 0.00 0.00 42 1019.4
20260905093513 81 43 2.6 7.0 0.00 0.00 0.00 43 1019.3
20260905093030 81 70 2.6 5.2 0.00 0.00 0.00 42 1019.3
20260905092508 81 40 0.0 5.2 0.00 0.00 0.00 45 1019.3
20260905092009 81 58 3.5 5.2 0.00 0.00 0.00 41 1019.3
20260905091512 82 58 2.6 6.1 0.00 0.00 0.00 42 1019.3
20260905091013 82 146 0.9 6.1 0.00 0.00 0.00 41 1019.3
20260905090509 84 58 1.7 5.2 0.00 0.00 0.00 40 1019.2
20260905090016 83 136 0.0 3.5 0.00 0.00 0.00 40 1019.2
20260905085510 82 49 1.7 5.2 0.00 0.00 0.00 42 1019.1
20260905085009 82 61 0.9 5.2 0.00 0.00 0.00 43 1019.1
20260905084519 82 56 0.9 4.3 0.00 0.00 0.00 41 1019.0
20260905084013 81 53 0.9 4.3 0.00 0.00 0.00 43 1019.0
20260905083519 80 78 0.9 4.3 0.00 0.00 0.00 45 1019.0
20260905083025 79 46 0.9 5.2 0.00 0.00 0.00 44 1019.0
20260905082515 79 58 2.6 5.2 0.00 0.00 0.00 43 1019.1
20260905082014 79 37 2.6 6.1 0.00 0.00 0.00 44 1019.0
20260905081528 78 65 2.6 6.1 0.00 0.00 0.00 45 1019.0
20260905081010 78 19 2.6 4.3 0.00 0.00 0.00 44 1018.8
20260905080505 77 45 1.7 4.3 0.00 0.00 0.00 46 1018.7
20260905080014 77 61 1.7 3.5 0.00 0.00 0.00 47 1018.7
20260905075509 77 55 0.9 5.2 0.00 0.00 0.00 46 1018.6
20260905075009 76 48 1.7 5.2 0.00 0.00 0.00 47 1018.6
20260905074522 76 39 0.9 4.3 0.00 0.00 0.00 48 1018.7
20260905074015 76 71 0.0 5.2 0.00 0.00 0.00 47 1018.6
20260905073513 76 58 1.7 5.2 0.00 0.00 0.00 47 1018.7
20260905073023 76 90 2.6 6.1 0.00 0.00 0.00 47 1018.5
20260905072512 76 51 1.7 6.1 0.00 0.00 0.00 46 1018.4
20260905072015 76 57 1.7 6.1 0.00 0.00 0.00 47 1018.3
20260905071524 76 49 3.5 6.1 0.00 0.00 0.00 46 1018.3
20260905071015 75 75 0.9 5.2 0.00 0.00 0.00 48 1018.2
20260905070513 75 55 1.7 5.2 0.00 0.00 0.00 47 1018.2
20260905070032 75 58 0.9 3.5 0.00 0.00 0.00 48 1018.2
20260905065506 74 68 0.9 3.5 0.00 0.00 0.00 49 1018.1
20260905065009 74 49 0.9 3.5 0.00 0.00 0.00 50 1018.0
20260905064514 74 56 1.7 4.3 0.00 0.00 0.00 48 1018.0
20260905064013 74 64 0.9 5.2 0.00 0.00 0.00 48 1018.0
20260905063511 74 59 1.7 5.2 0.00 0.00 0.00 47 1018.0
20260905063018 74 56 0.9 4.3 0.00 0.00 0.00 48 1018.0
20260905062514 74 58 0.9 5.2 0.00 0.00 0.00 47 1018.0
20260905062018 73 92 0.9 5.2 0.00 0.00 0.00 48 1018.0
20260905061524 73 53 1.7 5.2 0.00 0.00 0.00 48 1018.1
20260905061015 73 65 0.9 4.3 0.00 0.00 0.00 48 1018.1
20260905060516 73 128 0.9 7.0 0.00 0.00 0.00 48 1018.0
20260905060040 72 21 0.9 7.0 0.00 0.00 0.00 49 1018.1
20260905055513 72 63 0.9 6.1 0.00 0.00 0.00 49 1018.1
20260905055014 71 139 1.7 7.8 0.00 0.00 0.00 50 1018.1
20260905054525 71 86 1.7 7.8 0.00 0.00 0.00 51 1018.1
20260905054008 71 44 2.6 4.3 0.00 0.00 0.00 51 1018.1
20260905053507 71 77 0.9 5.2 0.00 0.00 0.00 52 1018.0
20260905053016 71 91 0.9 6.1 0.00 0.00 0.00 51 1018.0
20260905052511 70 72 2.6 6.1 0.00 0.00 0.00 52 1017.9
20260905052012 70 124 0.0 1.7 0.00 0.00 0.00 53 1017.9
20260905051519 70 100 0.0 3.5 0.00 0.00 0.00 52 1017.8
20260905051015 70 68 0.9 5.2 0.00 0.00 0.00 52 1017.8
20260905050517 71 104 1.7 7.0 0.00 0.00 0.00 51 1017.7
20260905050027 70 65 1.7 7.0 0.00 0.00 0.00 50 1017.7
20260905045521 70 51 0.9 3.5 0.00 0.00 0.00 51 1017.7
20260905045016 71 98 0.0 4.3 0.00 0.00 0.00 50 1017.6
20260905044531 71 77 0.0 6.1 0.00 0.00 0.00 49 1017.6
20260905044019 71 119 0.9 7.0 0.00 0.00 0.00 49 1017.5
20260905043519 71 110 0.9 7.0 0.00 0.00 0.00 49 1017.5
20260905043015 71 95 0.0 7.0 0.00 0.00 0.00 49 1017.5
20260905042513 71 79 0.9 7.0 0.00 0.00 0.00 48 1017.4
20260905042011 71 59 0.9 7.0 0.00 0.00 0.00 49 1017.4
20260905041520 71 57 1.7 6.1 0.00 0.00 0.00 48 1017.4
20260905041013 71 65 0.0 4.3 0.00 0.00 0.00 48 1017.4
20260905040516 71 131 1.7 7.0 0.00 0.00 0.00 48 1017.4
20260905040027 71 81 0.9 7.0 0.00 0.00 0.00 48 1017.4